Location: Ottawa
(45.4170°N, 75.7000°W)
Time: 23:59:27
(UTC-04:00)

Iridium 91 - Visible Passes

Search period start: 27 March 2015 00:00
Search period end: 06 April 2015 00:00
Orbit: 776 x 779 km, 86.4° (Epoch: 26 March)

Date Brightness Start Highest point End Pass type
(mag) Time Alt. Az. Time Alt. Az. Time Alt. Az.
27 Mar 6.5 06:17:39 10° SSE 06:22:41 53° E 06:27:46 10° NNE visible
28 Mar 7.7 05:44:52 10° SE 05:49:18 30° E 05:53:51 10° NNE visible
29 Mar 8.5 05:12:47 10° ESE 05:16:02 18° E 05:19:28 10° NE visible
31 Mar 7.0 05:44:27 10° SSE 05:49:18 42° E 05:54:14 10° NNE visible
01 Apr 8.0 05:11:54 10° SE 05:15:58 24° E 05:20:10 10° NNE visible
02 Apr 8.6 04:40:16 10° ESE 04:42:44 14° ENE 04:45:27 10° NE visible
03 Apr 6.2 05:44:15 10° SSE 05:49:20 60° E 05:54:30 10° N visible
04 Apr 7.3 05:11:21 10° SSE 05:15:56 34° E 05:20:38 10° NNE visible
05 Apr 8.2 04:39:04 10° ESE 04:42:39 20° E 04:46:23 10° NNE visible
